KINEIS-4D

Last updated on Wed Aug 19 2026 00:02:55 GMT+0000 (Coordinated Universal Time)

1 63302U 25056C 26230.58689692 .00001150 00000+0 18971-3 0 9993 2 63302 97.9078 352.9825 0003738 123.8151 236.3413 14.72286127 76311
UTC large
Height (km)
Speed (km/s)
/
Latitude / Longitude
Inclination (degrees)
Orbital Period (minutes)
Azimuth
Elevation
Range (km)
Doppler Factor

Next 0 passes for location: London (51.5072 / 0.1276)

No passes found over London.
KINEIS-4D